Weather History for Shaw AFB, SC

Change the Weather History Date:

Saturday, November 9, 2013

  Actual Average Record
Temperature  
Mean Temperature 48 °F -  
Max Temperature 64 °F 65 °F 84 °F (2005)
Min Temperature 33 °F 42 °F 33 °F (2013)
Degree Days  
Heating Degree Days 16    
Moisture  
Dew Point 35 °F    
Average Humidity 56    
Maximum Humidity 82    
Minimum Humidity 25    
Precipitation  
Precipitation 0.00 in - - ()
Sea Level Pressure  
Sea Level Pressure 30.27 in    
Wind  
Wind Speed 3 mph (WNW)    
Max Wind Speed 6 mph    
Max Gust Speed -    
Visibility 7 miles    
Events      
Averages and records for this station are not official NWS values.
T = Trace of Precipitation, MM = Missing Value Source: NWS Daily Summary

Daily Weather History Graph

Daily Weather History Graph

Search for Another Location

Airport:

Trip Planner

Search our weather history database for the weather conditions in past years. The results will help you decide how hot, cold, wet, or windy it might be!

Date:

Astronomy

Nov. 09, 2013 Rise Set
Actual Time 6:48 AM EST 5:22 PM EST
Civil Twilight 6:22 AM EST 5:48 PM EST
Nautical Twilight 5:52 AM EST 6:18 PM EST
Astronomical Twilight 5:23 AM EST 6:47 PM EST
Moon 12:27 PM EST (11/9) 11:46 PM EST (11/9)
Length of Visible Light 11h 25m
Length of Day
10h 33m
Waxing Crescent, 44% of the Moon is Illuminated
Nov 9
Waxing Crescent
Nov 10
First Quarter
Nov 17
Full
Nov 25
Last Quarter
Dec 2
New

Hourly Weather History & Observations

Time (EST) Temp. Windchill Dew Point Humidity Pressure Visibility Wind Dir Wind Speed Gust Speed Precip Events Conditions
12:58 AM 38.3 °F - 30.6 °F 74% 30.31 in 10.0 mi Calm Calm - N/A   Clear
1:58 AM 37.2 °F 33.6 °F 30.4 °F 76% 30.33 in 10.0 mi NE 4.6 mph - N/A   Clear
2:58 AM 36.5 °F 32.7 °F 29.5 °F 76% 30.31 in 10.0 mi NE 4.6 mph - N/A   Clear
3:58 AM 36.3 °F 32.5 °F 29.1 °F 75% 30.32 in 10.0 mi NE 4.6 mph - N/A   Clear
4:58 AM 37.8 °F - 29.3 °F 72% 30.34 in 10.0 mi NNE 2.3 mph - N/A   Partly Cloudy
5:58 AM 33.8 °F 29.6 °F 28.8 °F 82% 30.34 in 10.0 mi NE 4.6 mph - N/A   Partly Cloudy
6:58 AM 36.3 °F 33.7 °F 29.8 °F 77% 30.35 in 10.0 mi NE 3.5 mph - N/A   Scattered Clouds
7:58 AM 41.9 °F 38.2 °F 34.0 °F 73% 30.36 in 10.0 mi NE 5.8 mph - N/A   Mostly Cloudy
8:58 AM 44.8 °F 42.4 °F 32.7 °F 63% 30.37 in 10.0 mi NE 4.6 mph - N/A   Clear
9:58 AM 51.6 °F - 33.1 °F 49% 30.37 in 10.0 mi ENE 4.6 mph - N/A   Mostly Cloudy
10:58 AM 54.5 °F - 32.7 °F 44% 30.36 in 10.0 mi Variable 3.5 mph - N/A   Clear
11:58 AM 59.0 °F - 31.3 °F 35% 30.33 in 10.0 mi East 2.3 mph - N/A   Scattered Clouds
12:58 PM 61.3 °F - 30.0 °F 31% 30.30 in 10.0 mi Variable 3.5 mph - N/A   Mostly Cloudy
1:58 PM 62.6 °F - 26.1 °F 25% 30.28 in 10.0 mi Calm Calm - N/A   Scattered Clouds
2:58 PM 63.5 °F - 28.4 °F 27% 30.26 in 10.0 mi WNW 4.6 mph - N/A   Overcast
3:23 PM 64.4 °F - 28.4 °F 26% 30.25 in 2.5 mi Variable 3.5 mph - N/A   Haze
3:28 PM 64.4 °F - 28.4 °F 26% 30.25 in 3.0 mi WNW 1.2 mph - N/A   Haze
3:43 PM 64.4 °F - 28.4 °F 26% 30.25 in 2.5 mi NW 3.5 mph - N/A   Haze
3:53 PM 62.6 °F - 28.4 °F 27% 30.25 in 4.0 mi South 3.5 mph - N/A   Haze
3:58 PM 62.8 °F - 28.2 °F 27% 30.26 in 6.0 mi WNW 5.8 mph - N/A   Haze
4:03 PM 62.6 °F - 32.0 °F 32% 30.25 in 2.5 mi NW 5.8 mph - N/A   Haze
4:08 PM 60.8 °F - 32.0 °F 34% 30.25 in 1.8 mi NNW 5.8 mph - N/A   Haze
4:58 PM 58.6 °F - 34.3 °F 40% 30.27 in 1.8 mi NNW 4.6 mph - N/A   Haze
5:38 PM 57.2 °F - 33.8 °F 41% 30.26 in 2.0 mi NW 3.5 mph - N/A   Haze
5:48 PM 57.2 °F - 33.8 °F 41% 30.26 in 3.0 mi NW 4.6 mph - N/A   Haze
5:58 PM 56.5 °F - 34.3 °F 43% 30.28 in 3.0 mi WNW 4.6 mph - N/A   Haze
6:13 PM 53.6 °F - 35.6 °F 51% 30.26 in 5.0 mi Variable 1.2 mph - N/A   Haze
6:18 PM 53.6 °F - 35.6 °F 51% 30.26 in 9.0 mi Calm Calm - N/A   Mostly Cloudy
6:46 PM 53.6 °F - 37.4 °F 54% 30.26 in 5.0 mi Calm Calm - N/A   Haze
6:49 PM 53.6 °F - 37.4 °F 54% 30.26 in 6.0 mi Calm Calm - N/A   Haze
6:54 PM 53.6 °F - 39.2 °F 58% 30.26 in 9.0 mi SSE 2.3 mph - N/A   Clear
6:58 PM 52.9 °F - 39.4 °F 60% 30.26 in 10.0 mi SE 1.2 mph - N/A   Clear
7:23 PM 51.8 °F - 39.2 °F 62% 30.23 in 6.0 mi Calm Calm - N/A   Haze
7:28 PM 51.8 °F - 37.4 °F 58% 30.23 in 5.0 mi North 1.2 mph - N/A   Haze
7:43 PM 50.0 °F - 39.2 °F 66% 30.23 in 5.0 mi Calm Calm - N/A   Haze
7:48 PM 50.0 °F - 39.2 °F 66% 30.23 in 9.0 mi Calm Calm - N/A   Overcast
7:58 PM 50.5 °F - 39.0 °F 65% 30.23 in 8.0 mi Calm Calm - N/A   Overcast
8:03 PM 51.8 °F - 37.4 °F 58% 30.22 in 10.0 mi NE 2.3 mph - N/A   Overcast
8:13 PM 51.8 °F - 39.2 °F 62% 30.24 in 7.0 mi SW 3.5 mph - N/A   Overcast
8:18 PM 51.8 °F - 41.0 °F 67% 30.25 in 6.0 mi SW 3.5 mph - N/A   Haze
8:53 PM 51.8 °F - 41.0 °F 67% 30.25 in 7.0 mi SSW 2.3 mph - N/A   Overcast
8:58 PM 50.7 °F - 42.3 °F 73% 30.25 in 8.0 mi South 2.3 mph - N/A   Overcast
9:08 PM 51.8 °F - 41.0 °F 67% 30.24 in 10.0 mi SSW 2.3 mph - N/A   Overcast
9:23 PM 50.0 °F - 42.8 °F 76% 30.23 in 9.0 mi SW 1.2 mph - N/A   Overcast
9:28 PM 50.0 °F - 42.8 °F 76% 30.23 in 8.0 mi Variable 1.2 mph - N/A   Overcast
9:33 PM 50.0 °F - 41.0 °F 71% 30.23 in 6.0 mi Calm Calm - N/A   Haze
9:48 PM 51.8 °F - 42.8 °F 71% 30.23 in 7.0 mi Calm Calm - N/A   Overcast
9:58 PM 51.4 °F - 41.0 °F 68% 30.24 in 9.0 mi South 2.3 mph - N/A   Overcast
10:03 PM 51.8 °F - 41.0 °F 67% 30.23 in 10.0 mi South 2.3 mph - N/A   Overcast
10:13 PM 51.8 °F - 41.0 °F 67% 30.22 in 9.0 mi WSW 2.3 mph - N/A   Overcast
10:23 PM 50.0 °F - 42.8 °F 76% 30.23 in 6.0 mi WSW 4.6 mph - N/A   Haze
10:58 PM 52.9 °F - 36.9 °F 55% 30.24 in 6.0 mi WNW 3.5 mph - N/A   Haze
11:08 PM 53.6 °F - 37.4 °F 54% 30.23 in 5.0 mi WSW 2.3 mph - N/A   Haze
11:13 PM 51.8 °F - 37.4 °F 58% 30.23 in 5.0 mi West 3.5 mph - N/A   Haze
11:38 PM 51.8 °F - 39.2 °F 62% 30.22 in 8.0 mi WSW 2.3 mph - N/A   Overcast
11:58 PM 51.8 °F - 37.9 °F 59% 30.23 in 7.0 mi West 2.3 mph - N/A   Overcast